User: anonymous   Login
Location: Unspecified
(0.0000°N, 0.0000°E)
Time: 07:59:47
(UTC+00:00)
Language:

S-NET D - Orbit

View from above orbital plane
View from above orbital plane
View from above satellite
View from above satellite

Ground track
Ground track

The orbit data is extracted from the following two-line orbital elements,

1 43186U 18014G   20223.86417552 -.00000184 +00000-0 -11002-4 0  9996
2 43186 097.6893 130.8108 0012051 046.8160 313.4067 14.96829810137835
Epoch (UTC): 10 August 2020 20:44:24
Eccentricity: 0.0012051
inclination: 97.6893°
perigee height: 568 km
apogee height: 585 km
right ascension of ascending node: 130.8108°
argument of perigee: 46.8160°
revolutions per day: 14.96829810
mean anomaly at epoch: 313.4067°
orbit number at epoch: 13783

The dashed part of the orbit path shows where the satellite is in the earth's shadow,  

DLR